Weather History for Point Mugu, CA

Change the Weather History Date:

Saturday, January 26, 2013

  Actual Average Record
Temperature  
Mean Temperature 59 °F -  
Max Temperature 63 °F 61 °F 81 °F (2003)
Min Temperature 55 °F 43 °F 36 °F (2007)
Degree Days  
Heating Degree Days 6    
Growing Degree Days 9 (Base 50)    
Moisture  
Dew Point 56 °F    
Average Humidity 92    
Maximum Humidity 100    
Minimum Humidity 68    
Precipitation  
Precipitation 0.00 in - - ()
Sea Level Pressure  
Sea Level Pressure 29.94 in    
Wind  
Wind Speed 7 mph (West)    
Max Wind Speed 13 mph    
Max Gust Speed -    
Visibility 2 miles    
Events Fog , Rain    
Averages and records for this station are not official NWS values.
T = Trace of Precipitation, MM = Missing Value Source: NWS Daily Summary

Daily Weather History Graph

Daily Weather History Graph

Search for Another Location

Airport:

Trip Planner

Search our weather history database for the weather conditions in past years. The results will help you decide how hot, cold, wet, or windy it might be!

Date:

Astronomy

Jan. 26, 2013 Rise Set
Actual Time 6:57 AM PST 5:21 PM PST
Civil Twilight 6:30 AM PST 5:47 PM PST
Nautical Twilight 6:00 AM PST 6:18 PM PST
Astronomical Twilight 5:30 AM PST 6:47 PM PST
Moon 5:18 PM PST (1/26) 6:19 AM PST (1/26)
Length of Visible Light 11h 17m
Length of Day
10h 23m
Full, 100% of the Moon is Illuminated
Jan 26
Full
Jan 26
Full
Feb 3
Last Quarter
Feb 9
New
Feb 17
First Quarter

Hourly Weather History & Observations

Time (PST) Temp. Dew Point Humidity Pressure Visibility Wind Dir Wind Speed Gust Speed Precip Events Conditions
12:54 AM 59.0 °F 57.9 °F 96% 29.96 in - Variable 5.8 mph - N/A   Overcast
1:54 AM 57.9 °F 57.9 °F 100% 29.96 in - NNW 6.9 mph - N/A   Overcast
2:54 AM 57.9 °F 57.9 °F 100% 29.95 in - NNW 8.1 mph - N/A   Overcast
3:54 AM 57.9 °F 57.9 °F 100% 29.94 in - NNW 5.8 mph - 0.00 in Rain Light Rain
4:50 AM 57.2 °F 57.2 °F 100% 29.92 in - NW 5.8 mph - 0.00 in   Overcast
4:54 AM 57.9 °F 57.9 °F 100% 29.93 in - NW 4.6 mph - 0.00 in   Overcast
5:51 AM 57.2 °F 57.2 °F 100% 29.93 in - Variable 3.5 mph - N/A   Overcast
5:54 AM 57.0 °F 54.0 °F 89% 29.94 in 2.0 mi Variable 3.5 mph - N/A   Overcast
6:29 AM 57.2 °F 50.0 °F 77% 29.93 in 4.0 mi East 10.4 mph - N/A   Haze
6:54 AM 57.0 °F 50.5 °F 79% 29.94 in 4.0 mi Variable 3.5 mph - N/A   Haze
7:20 AM 57.2 °F 50.0 °F 77% 29.93 in 4.0 mi East 6.9 mph - N/A   Haze
7:54 AM 57.0 °F 54.1 °F 90% 29.93 in 4.0 mi Calm Calm - N/A   Mostly Cloudy
8:13 AM 57.2 °F 57.2 °F 100% 29.93 in 1.0 mi WNW 5.8 mph - N/A   Overcast
8:26 AM 57.2 °F 57.2 °F 100% 29.93 in 0.2 mi WNW 5.8 mph - N/A Fog Fog
8:54 AM 57.0 °F 57.0 °F 100% 29.94 in 0.2 mi Variable 6.9 mph - N/A Fog Fog
9:12 AM 57.2 °F 57.2 °F 100% 29.94 in 0.5 mi Variable 5.8 mph - N/A Fog Fog
9:25 AM 60.8 °F 50.0 °F 68% 29.93 in 7.0 mi ENE 5.8 mph - N/A   Scattered Clouds
9:54 AM 63.0 °F 57.6 °F 82% 29.94 in 7.0 mi Calm Calm - N/A   Scattered Clouds
10:50 AM 60.8 °F 59.0 °F 94% 29.95 in 0.1 mi West 9.2 mph - N/A Fog Fog
10:54 AM 59.0 °F 59.0 °F 100% 29.96 in 0.1 mi West 12.7 mph - N/A Fog Fog
11:33 AM 60.8 °F 59.0 °F 94% 29.95 in 0.5 mi West 9.2 mph - N/A Fog Fog
11:42 AM 60.8 °F 59.0 °F 94% 29.94 in 3.0 mi Variable 6.9 mph - N/A   Mostly Cloudy
11:54 AM 61.0 °F 59.0 °F 93% 29.94 in 3.0 mi Variable 5.8 mph - N/A   Scattered Clouds
12:54 PM 63.0 °F 60.1 °F 90% 29.92 in - Variable 5.8 mph - N/A   Clear
12:58 PM 62.6 °F 60.8 °F 94% 29.91 in 7.0 mi Variable 6.9 mph - N/A   Scattered Clouds
1:54 PM 60.1 °F 55.9 °F 86% 29.91 in 2.5 mi Variable 5.8 mph - N/A   Scattered Clouds
2:17 PM 59.0 °F 55.4 °F 88% 29.91 in 1.5 mi West 9.2 mph - N/A   Mostly Cloudy
2:19 PM 59.0 °F 55.4 °F 88% 29.91 in 0.5 mi West 9.2 mph - N/A Fog Fog
2:54 PM 59.0 °F 55.8 °F 89% 29.92 in 0.5 mi West 8.1 mph - N/A Fog Fog
3:08 PM 60.8 °F 55.4 °F 82% 29.92 in 2.5 mi West 11.5 mph - N/A   Mostly Cloudy
3:41 PM 60.8 °F 55.4 °F 82% 29.91 in 0.5 mi WNW 5.8 mph - N/A Fog Fog
3:54 PM 60.1 °F 55.6 °F 85% 29.91 in 0.2 mi West 8.1 mph - N/A Fog Fog
4:20 PM 57.2 °F 57.2 °F 100% 29.91 in 0.5 mi Variable 5.8 mph - N/A Fog Fog
4:54 PM 58.1 °F 55.8 °F 92% 29.92 in 3.0 mi North - - N/A   Overcast
5:54 PM 57.0 °F 57.0 °F 100% 29.94 in 3.0 mi Variable 5.8 mph - N/A   Overcast
6:08 PM 57.2 °F 57.2 °F 100% 29.93 in - South 6.9 mph - N/A   Overcast
6:46 PM 57.2 °F 57.2 °F 100% 29.94 in - Variable 4.6 mph - N/A   Overcast
6:54 PM 57.0 °F 55.2 °F 94% 29.95 in 2.5 mi Variable 5.8 mph - N/A   Overcast
7:01 PM 57.2 °F 57.2 °F 100% 29.95 in - Variable 5.8 mph - N/A   Overcast
7:54 PM 57.0 °F 53.4 °F 88% 29.96 in 2.5 mi SW 9.2 mph - N/A   Overcast
8:01 PM 57.2 °F 55.4 °F 94% 29.96 in - WSW 10.4 mph - N/A   Overcast
8:54 PM 57.0 °F 53.1 °F 87% 29.97 in 4.0 mi West 11.5 mph - N/A   Haze
9:54 PM 55.9 °F 51.3 °F 84% 29.99 in 5.0 mi West 11.5 mph - N/A   Haze
10:54 PM 55.0 °F 49.1 °F 80% 30.00 in 5.0 mi WSW 12.7 mph - N/A   Haze
11:11 PM 55.4 °F 51.8 °F 88% 30.00 in - West 12.7 mph - N/A   Haze
11:34 PM 55.4 °F 51.8 °F 88% 30.01 in - WSW 11.5 mph - N/A   Haze
11:54 PM 55.0 °F 52.0 °F 89% 30.01 in - WSW 12.7 mph - N/A   Haze